Weather History for KAVL - January, 2012

Change the Weather History Date:

Tuesday, January 3, 2012

  Actual Average Record
Temperature  
Mean Temperature 22 °F 37 °F  
Max Temperature 26 °F 47 °F 73 °F (2004)
Min Temperature 17 °F 27 °F 2 °F (1887)
Degree Days  
Heating Degree Days 43 28  
Month to date heating degree days 96 84  
Since 1 July heating degree days 1570 1745  
Cooling Degree Days 0 0  
Month to date cooling degree days 0 0  
Year to date cooling degree days 0 0  
Moisture  
Dew Point 8 °F    
Average Humidity 55    
Maximum Humidity 67    
Minimum Humidity 42    
Precipitation  
Precipitation T in 0.11 in 1.87 in (1982)
Month to date precipitation T 0.32  
Year to date precipitation T 0.32  
Snow  
Snow T in 0.10 in 4.00 in (1872)
Month to date snowfall T 0.3  
Since 1 July snowfall T 1.3  
Snow Depth T in    
Sea Level Pressure  
Sea Level Pressure 30.23 in    
Wind  
Wind Speed 15 mph (NNW)    
Max Wind Speed 31 mph    
Max Gust Speed 40 mph    
Visibility 9 miles    
Events Snow    
T = Trace of Precipitation, MM = Missing Value Source: NWS Daily Summary

Daily Weather History Graph

Daily Weather History Graph

Search for Another Location

Airport or City:

Trip Planner

Search our weather history database for the weather conditions in past years. The results will help you decide how hot, cold, wet, or windy it might be!

Date:

Astronomy

Jan. 03, 2012 Rise Set
Actual Time 7:39 AM EST 5:29 PM EST
Civil Twilight 7:11 AM EST 5:57 PM EST
Nautical Twilight 6:39 AM EST 6:29 PM EST
Astronomical Twilight 6:08 AM EST 7:00 PM EST
Moon 1:13 PM EST (1/3) 2:32 AM EST (1/3)
Length of Visible Light 10h 46m
Length of Day
9h 50m
Waxing Gibbous, 72% of the Moon is Illuminated
Jan 3
Waxing Gibbous
Jan 9
Full
Jan 16
Last Quarter
Jan 23
New
Jan 30
First Quarter

Hourly Weather History & Observations

Time (EST) Temp. Windchill Dew Point Humidity Pressure Visibility Wind Dir Wind Speed Gust Speed Precip Events Conditions
12:36 AM 17.6 °F 0.9 °F 10.4 °F 73% 30.08 in 1.8 mi NW 20.7 mph 31.1 mph 0.00 in Snow Light Snow
12:47 AM 17.6 °F 2.2 °F 10.4 °F 73% 30.08 in 2.5 mi NW 17.3 mph 31.1 mph 0.00 in Snow Light Snow
12:54 AM 17.1 °F -0.3 °F 10.9 °F 77% 30.12 in 1.8 mi NW 21.9 mph 28.8 mph 0.00 in Snow Light Snow
1:05 AM 17.6 °F 2.2 °F 12.2 °F 79% 30.07 in 3.0 mi NW 17.3 mph 26.5 mph 0.00 in Snow Light Snow
1:54 AM 18.0 °F 0.2 °F 8.1 °F 65% 30.12 in 9.0 mi NW 24.2 mph 32.2 mph 0.00 in Snow Light Snow
2:51 AM 17.6 °F 1.3 °F 6.8 °F 63% 30.08 in 10.0 mi NNW 19.6 mph 33.4 mph 0.00 in   Overcast
2:54 AM 18.0 °F 1.3 °F 7.0 °F 62% 30.13 in 10.0 mi NNW 20.7 mph 33.4 mph 0.00 in   Overcast
3:54 AM 17.1 °F -0.3 °F 6.1 °F 62% 30.14 in 10.0 mi NNW 21.9 mph 28.8 mph N/A   Scattered Clouds
4:54 AM 17.1 °F -0.3 °F 5.0 °F 59% 30.16 in 10.0 mi NNW 21.9 mph 33.4 mph N/A   Scattered Clouds
5:54 AM 17.1 °F -0.6 °F 6.1 °F 62% 30.17 in 10.0 mi NNW 23.0 mph 38.0 mph 0.00 in   Clear
6:54 AM 17.1 °F 1.5 °F 6.1 °F 62% 30.22 in 10.0 mi NW 17.3 mph 27.6 mph N/A   Clear
7:54 AM 18.0 °F 1.7 °F 7.0 °F 62% 30.24 in 10.0 mi NNW 19.6 mph 28.8 mph N/A   Clear
8:54 AM 18.0 °F 1.3 °F 7.0 °F 62% 30.27 in 10.0 mi NNW 20.7 mph 31.1 mph N/A   Scattered Clouds
9:54 AM 19.9 °F 4.8 °F 6.1 °F 55% 30.29 in 10.0 mi North 18.4 mph 29.9 mph N/A   Scattered Clouds
10:54 AM 19.9 °F 6.7 °F 8.1 °F 60% 30.31 in 10.0 mi North 13.8 mph 26.5 mph N/A   Mostly Cloudy
11:54 AM 21.0 °F 6.6 °F 9.0 °F 60% 30.30 in 10.0 mi NNW 17.3 mph 24.2 mph N/A   Scattered Clouds
12:54 PM 21.9 °F 10.4 °F 8.1 °F 55% 30.28 in 10.0 mi North 11.5 mph 21.9 mph N/A   Scattered Clouds
1:54 PM 25.0 °F 12.2 °F 8.1 °F 49% 30.25 in 10.0 mi NNW 16.1 mph 24.2 mph N/A   Clear
2:54 PM 25.0 °F 12.2 °F 5.0 °F 43% 30.25 in 10.0 mi North 16.1 mph 26.5 mph N/A   Clear
3:54 PM 25.0 °F 11.7 °F 5.0 °F 43% 30.27 in 10.0 mi North 17.3 mph 24.2 mph N/A   Clear
4:54 PM 24.1 °F 12.5 °F 6.1 °F 46% 30.27 in 10.0 mi North 12.7 mph 21.9 mph N/A   Clear
5:54 PM 21.9 °F 9.8 °F 7.0 °F 53% 30.29 in 10.0 mi NNW 12.7 mph - N/A   Clear
6:54 PM 21.0 °F 13.4 °F 8.1 °F 57% 30.30 in 10.0 mi NNW 5.8 mph - N/A   Clear
7:54 PM 21.0 °F 9.3 °F 9.0 °F 60% 30.32 in 10.0 mi NNW 11.5 mph 19.6 mph N/A   Clear
8:54 PM 21.0 °F 9.9 °F 9.0 °F 60% 30.33 in 10.0 mi North 10.4 mph - N/A   Clear
9:54 PM 21.0 °F 14.6 °F 9.0 °F 60% 30.32 in 10.0 mi North 4.6 mph - N/A   Clear
10:54 PM 19.9 °F 12.1 °F 9.0 °F 62% 30.34 in 10.0 mi NNW 5.8 mph - N/A   Clear
11:54 PM 19.0 °F - 9.0 °F 65% 30.34 in 10.0 mi Calm Calm - N/A   Clear